| time (UTC) | temp C | wind direction | speed KPH | gust KPH | rain 1hr cm | rain 24hr cm | rain mn cm | humidity % | barometer mb |
| 20260508005232 | 18 | 202 | 11.3 | 17.7 | 0.00 | 0.00 | 0.00 | 50 | 1010.6 |
| 20260508004727 | 18 | 193 | 9.7 | 14.5 | 0.00 | 0.00 | 0.00 | 51 | 1010.6 |
| 20260508004224 | 18 | 197 | 6.4 | 9.7 | 0.00 | 0.00 | 0.00 | 51 | 1010.7 |
| 20260508003721 | 18 | 227 | 8.0 | 9.7 | 0.00 | 0.00 | 0.00 | 50 | 1010.6 |
| 20260508003219 | 18 | 176 | 9.7 | 11.3 | 0.00 | 0.00 | 0.00 | 49 | 1010.5 |
| 20260508002715 | 18 | 199 | 4.8 | 17.7 | 0.00 | 0.00 | 0.00 | 50 | 1010.8 |
| 20260508002212 | 18 | 202 | 6.4 | 16.1 | 0.00 | 0.00 | 0.00 | 49 | 1010.5 |
| 20260508001707 | 18 | 224 | 8.0 | 11.3 | 0.00 | 0.00 | 0.00 | 48 | 1010.5 |
| 20260508001158 | 19 | 179 | 6.4 | 12.9 | 0.00 | 0.00 | 0.00 | 47 | 1010.6 |
| 20260508000654 | 19 | 162 | 8.0 | 12.9 | 0.00 | 0.00 | 0.00 | 47 | 1010.6 |
| 20260508000152 | 19 | 227 | 8.0 | 12.9 | 0.00 | 0.00 | 0.00 | 46 | 1010.6 |
| 20260507235648 | 19 | 171 | 6.4 | 12.9 | 0.00 | 0.00 | 0.00 | 47 | 1010.8 |
| 20260507235145 | 20 | 208 | 6.4 | 14.5 | 0.00 | 0.00 | 0.00 | 46 | 1010.9 |
| 20260507234642 | 20 | 219 | 4.8 | 9.7 | 0.00 | 0.00 | 0.00 | 47 | 1010.9 |
| 20260507234138 | 20 | 215 | 3.2 | 11.3 | 0.00 | 0.00 | 0.00 | 46 | 1010.7 |
| 20260507233635 | 20 | 228 | 6.4 | 11.3 | 0.00 | 0.00 | 0.00 | 48 | 1010.8 |
| 20260507233133 | 20 | 182 | 8.0 | 12.9 | 0.00 | 0.00 | 0.00 | 47 | 1010.9 |
| 20260507232629 | 20 | 186 | 1.6 | 6.4 | 0.00 | 0.00 | 0.00 | 47 | 1010.9 |
| 20260507232127 | 20 | 189 | 11.3 | 17.7 | 0.00 | 0.00 | 0.00 | 47 | 1010.7 |
| 20260507231623 | 19 | 208 | 11.3 | 14.5 | 0.00 | 0.00 | 0.00 | 48 | 1011.0 |
| 20260507231120 | 19 | 227 | 6.4 | 12.9 | 0.00 | 0.00 | 0.00 | 49 | 1011.0 |
| 20260507230616 | 20 | 196 | 6.4 | 17.7 | 0.00 | 0.00 | 0.00 | 49 | 1011.2 |
| 20260507230114 | 20 | 223 | 4.8 | 6.4 | 0.00 | 0.00 | 0.00 | 46 | 1011.1 |
| 20260507225609 | 20 | 195 | 11.3 | 22.5 | 0.00 | 0.00 | 0.00 | 47 | 1011.3 |
| 20260507225106 | 20 | 169 | 8.0 | 14.5 | 0.00 | 0.00 | 0.00 | 47 | 1011.4 |
| 20260507224601 | 20 | 219 | 3.2 | 3.2 | 0.00 | 0.00 | 0.00 | 47 | 1011.3 |
| 20260507224058 | 20 | 228 | 8.0 | 11.3 | 0.00 | 0.00 | 0.00 | 45 | 1011.5 |
| 20260507223554 | 20 | 204 | 4.8 | 12.9 | 0.00 | 0.00 | 0.00 | 45 | 1011.5 |
| 20260507223051 | 20 | 241 | 8.0 | 17.7 | 0.00 | 0.00 | 0.00 | 44 | 1011.6 |
| 20260507222549 | 20 | 192 | 11.3 | 17.7 | 0.00 | 0.00 | 0.00 | 44 | 1011.7 |
| 20260507222045 | 21 | 206 | 8.0 | 9.7 | 0.00 | 0.00 | 0.00 | 44 | 1011.7 |
| 20260507221541 | 21 | 282 | 11.3 | 12.9 | 0.00 | 0.00 | 0.00 | 42 | 1011.7 |
| 20260507221038 | 21 | 292 | 11.3 | 12.9 | 0.00 | 0.00 | 0.00 | 41 | 1011.6 |
| 20260507220535 | 21 | 190 | 6.4 | 6.4 | 0.00 | 0.00 | 0.00 | 45 | 1011.8 |
| 20260507220033 | 20 | 204 | 11.3 | 16.1 | 0.00 | 0.00 | 0.00 | 46 | 1012.0 |
| 20260507215529 | 20 | 188 | 6.4 | 11.3 | 0.00 | 0.00 | 0.00 | 43 | 1011.8 |
| 20260507215027 | 20 | 166 | 6.4 | 9.7 | 0.00 | 0.00 | 0.00 | 44 | 1012.0 |
| 20260507214524 | 20 | 214 | 8.0 | 12.9 | 0.00 | 0.00 | 0.00 | 44 | 1012.0 |
| 20260507214020 | 20 | 225 | 3.2 | 6.4 | 0.00 | 0.00 | 0.00 | 45 | 1012.0 |
| 20260507213516 | 20 | 199 | 6.4 | 11.3 | 0.00 | 0.00 | 0.00 | 46 | 1012.0 |
| 20260507213013 | 20 | 249 | 4.8 | 12.9 | 0.00 | 0.00 | 0.00 | 42 | 1011.9 |
| 20260507212508 | 19 | 202 | 3.2 | 16.1 | 0.00 | 0.00 | 0.00 | 44 | 1012.1 |
| 20260507212006 | 20 | 275 | 6.4 | 16.1 | 0.00 | 0.00 | 0.00 | 45 | 1012.1 |
| 20260507211503 | 20 | 212 | 9.7 | 12.9 | 0.00 | 0.00 | 0.00 | 42 | 1012.1 |
| 20260507210959 | 20 | 198 | 8.0 | 12.9 | 0.00 | 0.00 | 0.00 | 44 | 1012.2 |
| 20260507210456 | 20 | 237 | 6.4 | 11.3 | 0.00 | 0.00 | 0.00 | 43 | 1012.2 |
| 20260507205953 | 21 | 208 | 11.3 | 12.9 | 0.00 | 0.00 | 0.00 | 40 | 1012.0 |
| 20260507205450 | 20 | 215 | 3.2 | 4.8 | 0.00 | 0.00 | 0.00 | 43 | 1012.1 |
| 20260507204946 | 20 | 199 | 6.4 | 9.7 | 0.00 | 0.00 | 0.00 | 43 | 1012.1 |
| 20260507204442 | 20 | 248 | 6.4 | 14.5 | 0.00 | 0.00 | 0.00 | 43 | 1012.1 |
| 20260507203940 | 20 | 254 | 8.0 | 12.9 | 0.00 | 0.00 | 0.00 | 41 | 1012.3 |
| 20260507203438 | 20 | 216 | 6.4 | 11.3 | 0.00 | 0.00 | 0.00 | 42 | 1012.4 |
| 20260507202934 | 20 | 164 | 11.3 | 22.5 | 0.00 | 0.00 | 0.00 | 46 | 1012.4 |
| 20260507202431 | 20 | 227 | 6.4 | 9.7 | 0.00 | 0.00 | 0.00 | 42 | 1012.4 |
| 20260507201926 | 21 | 238 | 8.0 | 11.3 | 0.00 | 0.00 | 0.00 | 40 | 1012.5 |
| 20260507201416 | 21 | 195 | 4.8 | 9.7 | 0.00 | 0.00 | 0.00 | 41 | 1012.3 |
| 20260507200913 | 20 | 177 | 6.4 | 12.9 | 0.00 | 0.00 | 0.00 | 42 | 1012.6 |
| 20260507200409 | 20 | 225 | 4.8 | 20.9 | 0.00 | 0.00 | 0.00 | 41 | 1012.5 |
| 20260507195904 | 20 | 193 | 8.0 | 14.5 | 0.00 | 0.00 | 0.00 | 41 | 1012.8 |
| 20260507195403 | 20 | 188 | 1.6 | 6.4 | 0.00 | 0.00 | 0.00 | 50 | 1012.9 |
| 20260507194859 | 20 | 211 | 9.7 | 16.1 | 0.00 | 0.00 | 0.00 | 43 | 1012.8 |
| 20260507194356 | 20 | 208 | 8.0 | 14.5 | 0.00 | 0.00 | 0.00 | 43 | 1012.9 |
| 20260507193852 | 20 | 201 | 8.0 | 11.3 | 0.00 | 0.00 | 0.00 | 47 | 1013.1 |
| 20260507193349 | 20 | 256 | 8.0 | 14.5 | 0.00 | 0.00 | 0.00 | 42 | 1013.0 |
| 20260507192845 | 20 | 208 | 6.4 | 20.9 | 0.00 | 0.00 | 0.00 | 43 | 1013.2 |
| 20260507192342 | 20 | 178 | 4.8 | 11.3 | 0.00 | 0.00 | 0.00 | 44 | 1013.2 |
| 20260507191838 | 20 | 192 | 6.4 | 11.3 | 0.00 | 0.00 | 0.00 | 48 | 1013.2 |
| 20260507191334 | 20 | 202 | 3.2 | 9.7 | 0.00 | 0.00 | 0.00 | 41 | 1013.3 |
| 20260507190832 | 20 | 220 | 8.0 | 12.9 | 0.00 | 0.00 | 0.00 | 42 | 1013.1 |
| 20260507190330 | 19 | 245 | 4.8 | 9.7 | 0.00 | 0.00 | 0.00 | 44 | 1013.5 |
| 20260507185829 | 20 | 244 | 4.8 | 16.1 | 0.00 | 0.00 | 0.00 | 43 | 1013.5 |
| 20260507185325 | 20 | 253 | 6.4 | 11.3 | 0.00 | 0.00 | 0.00 | 41 | 1013.5 |
| 20260507184822 | 20 | 208 | 8.0 | 11.3 | 0.00 | 0.00 | 0.00 | 45 | 1013.7 |
| 20260507184320 | 20 | 251 | 8.0 | 24.1 | 0.00 | 0.00 | 0.00 | 44 | 1013.7 |
| 20260507183817 | 19 | 188 | 8.0 | 11.3 | 0.00 | 0.00 | 0.00 | 44 | 1013.8 |
| 20260507183314 | 20 | 244 | 11.3 | 12.9 | 0.00 | 0.00 | 0.00 | 45 | 1013.7 |
| 20260507182811 | 20 | 247 | 6.4 | 12.9 | 0.00 | 0.00 | 0.00 | 44 | 1013.7 |
| 20260507182307 | 19 | 231 | 6.4 | 11.3 | 0.00 | 0.00 | 0.00 | 43 | 1013.9 |
| 20260507181803 | 19 | 165 | 4.8 | 14.5 | 0.00 | 0.00 | 0.00 | 46 | 1014.0 |
| 20260507181259 | 18 | 268 | 11.3 | 14.5 | 0.00 | 0.00 | 0.00 | 45 | 1014.0 |
| 20260507180756 | 20 | 209 | 4.8 | 16.1 | 0.00 | 0.00 | 0.00 | 48 | 1014.1 |
| 20260507180253 | 19 | 234 | 3.2 | 9.7 | 0.00 | 0.00 | 0.00 | 47 | 1014.1 |
| 20260507175748 | 18 | 209 | 9.7 | 20.9 | 0.00 | 0.00 | 0.00 | 46 | 1014.0 |
| 20260507175246 | 18 | 263 | 11.3 | 12.9 | 0.00 | 0.00 | 0.00 | 45 | 1014.1 |
| 20260507174743 | 18 | 269 | 12.9 | 17.7 | 0.00 | 0.00 | 0.00 | 44 | 1014.3 |
| 20260507174241 | 19 | 235 | 6.4 | 24.1 | 0.00 | 0.00 | 0.00 | 42 | 1014.2 |
| 20260507173739 | 18 | 249 | 12.9 | 14.5 | 0.00 | 0.00 | 0.00 | 44 | 1014.6 |
| 20260507173235 | 18 | 261 | 11.3 | 17.7 | 0.00 | 0.00 | 0.00 | 45 | 1014.4 |
| 20260507172731 | 18 | 223 | 8.0 | 16.1 | 0.00 | 0.00 | 0.00 | 45 | 1014.6 |
| 20260507172228 | 18 | 212 | 8.0 | 12.9 | 0.00 | 0.00 | 0.00 | 44 | 1014.8 |
| 20260507171723 | 18 | 240 | 16.1 | 22.5 | 0.00 | 0.00 | 0.00 | 45 | 1014.8 |
| 20260507171220 | 18 | 292 | 6.4 | 9.7 | 0.00 | 0.00 | 0.00 | 49 | 1014.9 |
| 20260507170717 | 18 | 254 | 9.7 | 12.9 | 0.00 | 0.00 | 0.00 | 45 | 1015.1 |
| 20260507170214 | 18 | 238 | 4.8 | 9.7 | 0.00 | 0.00 | 0.00 | 47 | 1015.1 |
| 20260507165710 | 18 | 260 | 9.7 | 12.9 | 0.00 | 0.00 | 0.00 | 45 | 1015.2 |
| 20260507165206 | 18 | 278 | 8.0 | 14.5 | 0.00 | 0.00 | 0.00 | 50 | 1015.3 |
| 20260507164702 | 18 | 223 | 4.8 | 14.5 | 0.00 | 0.00 | 0.00 | 48 | 1015.3 |
| 20260507164200 | 18 | 214 | 6.4 | 17.7 | 0.00 | 0.00 | 0.00 | 52 | 1015.4 |
| 20260507163656 | 18 | 184 | 9.7 | 11.3 | 0.00 | 0.00 | 0.00 | 46 | 1015.5 |
| 20260507163154 | 17 | 259 | 4.8 | 9.7 | 0.00 | 0.00 | 0.00 | 49 | 1015.4 |
| 20260507162649 | 17 | 283 | 14.5 | 17.7 | 0.00 | 0.00 | 0.00 | 47 | 1015.6 |
| 20260507162145 | 17 | 256 | 6.4 | 17.7 | 0.00 | 0.00 | 0.00 | 51 | 1015.5 |
| 20260507161642 | 17 | 251 | 8.0 | 11.3 | 0.00 | 0.00 | 0.00 | 50 | 1015.7 |
| 20260507161138 | 17 | 259 | 11.3 | 14.5 | 0.00 | 0.00 | 0.00 | 48 | 1015.5 |
| 20260507160635 | 17 | 187 | 3.2 | 14.5 | 0.00 | 0.00 | 0.00 | 52 | 1015.6 |
| 20260507160132 | 17 | 267 | 6.4 | 14.5 | 0.00 | 0.00 | 0.00 | 49 | 1015.7 |
| 20260507155627 | 17 | 207 | 3.2 | 9.7 | 0.00 | 0.00 | 0.00 | 52 | 1015.7 |
| 20260507155119 | 17 | 223 | 6.4 | 9.7 | 0.00 | 0.00 | 0.00 | 51 | 1015.9 |
| 20260507154615 | 17 | 256 | 8.0 | 9.7 | 0.00 | 0.00 | 0.00 | 52 | 1015.9 |
| 20260507154113 | 17 | 249 | 6.4 | 12.9 | 0.00 | 0.00 | 0.00 | 49 | 1015.8 |
| 20260507153609 | 16 | 240 | 6.4 | 14.5 | 0.00 | 0.00 | 0.00 | 54 | 1015.9 |
| 20260507153106 | 16 | 223 | 3.2 | 14.5 | 0.00 | 0.00 | 0.00 | 56 | 1015.9 |
| 20260507152602 | 16 | 265 | 6.4 | 12.9 | 0.00 | 0.00 | 0.00 | 50 | 1015.9 |
| 20260507152057 | 16 | 173 | 3.2 | 12.9 | 0.00 | 0.00 | 0.00 | 56 | 1015.9 |
| 20260507151554 | 16 | 225 | 4.8 | 6.4 | 0.00 | 0.00 | 0.00 | 52 | 1015.8 |
| 20260507151051 | 16 | 204 | 4.8 | 9.7 | 0.00 | 0.00 | 0.00 | 53 | 1016.0 |
| 20260507150548 | 16 | 240 | 4.8 | 11.3 | 0.00 | 0.00 | 0.00 | 52 | 1016.0 |
| 20260507150045 | 15 | 206 | 8.0 | 12.9 | 0.00 | 0.00 | 0.00 | 54 | 1016.1 |
| 20260507145540 | 15 | 225 | 6.4 | 9.7 | 0.00 | 0.00 | 0.00 | 54 | 1016.2 |
| 20260507145038 | 15 | 258 | 9.7 | 11.3 | 0.00 | 0.00 | 0.00 | 55 | 1016.1 |
| 20260507144534 | 15 | 271 | 8.0 | 12.9 | 0.00 | 0.00 | 0.00 | 57 | 1016.3 |
| 20260507144032 | 15 | 242 | 3.2 | 12.9 | 0.00 | 0.00 | 0.00 | 60 | 1016.3 |
| 20260507143528 | 15 | 246 | 6.4 | 6.4 | 0.00 | 0.00 | 0.00 | 58 | 1016.3 |
| 20260507143021 | 15 | 230 | 3.2 | 11.3 | 0.00 | 0.00 | 0.00 | 58 | 1016.4 |
| 20260507142515 | 14 | 225 | 6.4 | 6.4 | 0.00 | 0.00 | 0.00 | 62 | 1016.4 |
| 20260507142007 | 13 | 185 | 6.4 | 6.4 | 0.00 | 0.00 | 0.00 | 60 | 1016.2 |
| 20260507141503 | 13 | 274 | 9.7 | 11.3 | 0.00 | 0.00 | 0.00 | 61 | 1016.5 |
| 20260507141000 | 13 | 199 | 3.2 | 9.7 | 0.00 | 0.00 | 0.00 | 62 | 1016.6 |
| 20260507140456 | 13 | 218 | 3.2 | 4.8 | 0.00 | 0.00 | 0.00 | 61 | 1016.6 |
| 20260507135954 | 13 | 155 | 1.6 | 4.8 | 0.00 | 0.00 | 0.00 | 62 | 1016.4 |
| 20260507135450 | 13 | 200 | 4.8 | 4.8 | 0.00 | 0.00 | 0.00 | 65 | 1016.5 |
| 20260507134942 | 12 | 275 | 6.4 | 6.4 | 0.00 | 0.00 | 0.00 | 64 | 1016.6 |
| 20260507134438 | 12 | 195 | 6.4 | 6.4 | 0.00 | 0.00 | 0.00 | 64 | 1016.5 |
| 20260507133934 | 12 | 193 | 8.0 | 11.3 | 0.00 | 0.00 | 0.00 | 65 | 1016.5 |
| 20260507133430 | 12 | 190 | 6.4 | 9.7 | 0.00 | 0.00 | 0.00 | 66 | 1016.6 |
| 20260507132924 | 11 | 193 | 3.2 | 4.8 | 0.00 | 0.00 | 0.00 | 66 | 1016.7 |
| 20260507132419 | 11 | 209 | 8.0 | 11.3 | 0.00 | 0.00 | 0.00 | 69 | 1016.6 |
| 20260507131916 | 11 | 229 | 4.8 | 6.4 | 0.00 | 0.00 | 0.00 | 70 | 1016.6 |
| 20260507131413 | 10 | 166 | 4.8 | 6.4 | 0.00 | 0.00 | 0.00 | 69 | 1016.7 |
| 20260507130910 | 10 | 151 | 3.2 | 4.8 | 0.00 | 0.00 | 0.00 | 71 | 1016.6 |
| 20260507130407 | 10 | 181 | 3.2 | 4.8 | 0.00 | 0.00 | 0.00 | 70 | 1016.8 |
| 20260507125906 | 10 | 173 | 6.4 | 9.7 | 0.00 | 0.00 | 0.00 | 70 | 1016.8 |
| 20260507125403 | 10 | 178 | 3.2 | 4.8 | 0.00 | 0.00 | 0.00 | 71 | 1016.8 |
| 20260507124901 | 9 | 185 | 3.2 | 6.4 | 0.00 | 0.00 | 0.00 | 71 | 1016.6 |
| 20260507124356 | 9 | 196 | 3.2 | 4.8 | 0.00 | 0.00 | 0.00 | 71 | 1016.8 |
| 20260507123855 | 8 | 171 | 1.6 | 6.4 | 0.00 | 0.00 | 0.00 | 72 | 1016.8 |
| 20260507123352 | 8 | 185 | 3.2 | 3.2 | 0.00 | 0.00 | 0.00 | 70 | 1016.8 |
| 20260507122848 | 8 | 176 | 3.2 | 4.8 | 0.00 | 0.00 | 0.00 | 70 | 1016.6 |
| 20260507122343 | 8 | 185 | 3.2 | 4.8 | 0.00 | 0.00 | 0.00 | 72 | 1016.7 |
| 20260507121840 | 8 | 243 | 1.6 | 4.8 | 0.00 | 0.00 | 0.00 | 72 | 1016.7 |
| 20260507121335 | 7 | 180 | 1.6 | 3.2 | 0.00 | 0.00 | 0.00 | 72 | 1016.8 |
| 20260507120832 | 7 | 165 | 1.6 | 3.2 | 0.00 | 0.00 | 0.00 | 71 | 1016.6 |
| 20260507120329 | 7 | 172 | 1.6 | 3.2 | 0.00 | 0.00 | 0.00 | 72 | 1016.6 |
| 20260507115825 | 7 | 187 | 1.6 | 3.2 | 0.00 | 0.00 | 0.00 | 72 | 1016.6 |
| 20260507115320 | 7 | 176 | 1.6 | 3.2 | 0.00 | 0.00 | 0.00 | 74 | 1016.5 |
| 20260507114816 | 6 | 185 | 3.2 | 3.2 | 0.00 | 0.00 | 0.00 | 74 | 1016.6 |
| 20260507114314 | 6 | 160 | 0.0 | 4.8 | 0.00 | 0.00 | 0.00 | 75 | 1016.4 |
| 20260507113811 | 5 | 175 | 1.6 | 3.2 | 0.00 | 0.00 | 0.00 | 80 | 1016.3 |
| 20260507113308 | 4 | 126 | 0.0 | 0.0 | 0.00 | 0.00 | 0.00 | 83 | 1016.3 |
| 20260507112806 | 4 | 130 | 0.0 | 0.0 | 0.00 | 0.00 | 0.00 | 83 | 1016.5 |
| 20260507112306 | 4 | 130 | 0.0 | 0.0 | 0.00 | 0.00 | 0.00 | 83 | 1016.4 |
| 20260507111801 | 4 | 130 | 0.0 | 0.0 | 0.00 | 0.00 | 0.00 | 83 | 1016.3 |
| 20260507111256 | 4 | 130 | 0.0 | 0.0 | 0.00 | 0.00 | 0.00 | 82 | 1016.2 |
| 20260507110753 | 4 | 125 | 0.0 | 0.0 | 0.00 | 0.00 | 0.00 | 81 | 1016.3 |
| 20260507110249 | 5 | 124 | 0.0 | 0.0 | 0.00 | 0.00 | 0.00 | 80 | 1016.3 |
| 20260507105746 | 5 | 125 | 0.0 | 0.0 | 0.00 | 0.00 | 0.00 | 78 | 1016.2 |
| 20260507105242 | 5 | 113 | 0.0 | 1.6 | 0.00 | 0.00 | 0.00 | 77 | 1016.3 |
| 20260507104740 | 5 | 136 | 0.0 | 0.0 | 0.00 | 0.00 | 0.00 | 77 | 1016.3 |
| 20260507104236 | 5 | 127 | 0.0 | 1.6 | 0.00 | 0.00 | 0.00 | 77 | 1016.3 |
| 20260507103732 | 5 | 134 | 0.0 | 1.6 | 0.00 | 0.00 | 0.00 | 76 | 1016.4 |
| 20260507103229 | 5 | 126 | 0.0 | 3.2 | 0.00 | 0.00 | 0.00 | 73 | 1016.2 |
| 20260507102725 | 5 | 168 | 1.6 | 1.6 | 0.00 | 0.00 | 0.00 | 73 | 1016.4 |
| 20260507102222 | 5 | 166 | 1.6 | 3.2 | 0.00 | 0.00 | 0.00 | 72 | 1016.6 |
| 20260507101718 | 5 | 169 | 1.6 | 3.2 | 0.00 | 0.00 | 0.00 | 72 | 1016.6 |
| 20260507101213 | 6 | 186 | 3.2 | 4.8 | 0.00 | 0.00 | 0.00 | 71 | 1016.7 |
| 20260507100711 | 5 | 187 | 3.2 | 4.8 | 0.00 | 0.00 | 0.00 | 71 | 1016.5 |
| 20260507100209 | 6 | 173 | 0.0 | 4.8 | 0.00 | 0.00 | 0.00 | 70 | 1016.4 |
| 20260507095706 | 6 | 176 | 3.2 | 3.2 | 0.00 | 0.00 | 0.00 | 70 | 1016.7 |
| 20260507095157 | 6 | 185 | 3.2 | 4.8 | 0.00 | 0.00 | 0.00 | 71 | 1016.6 |
| 20260507094654 | 6 | 184 | 4.8 | 6.4 | 0.00 | 0.00 | 0.00 | 70 | 1016.7 |
| 20260507094150 | 6 | 197 | 3.2 | 4.8 | 0.00 | 0.00 | 0.00 | 70 | 1016.5 |
| 20260507093648 | 6 | 175 | 4.8 | 6.4 | 0.00 | 0.00 | 0.00 | 68 | 1016.7 |
| 20260507093147 | 6 | 171 | 3.2 | 6.4 | 0.00 | 0.00 | 0.00 | 70 | 1016.7 |
| 20260507092643 | 6 | 176 | 3.2 | 4.8 | 0.00 | 0.00 | 0.00 | 71 | 1016.6 |
| 20260507092139 | 6 | 191 | 6.4 | 6.4 | 0.00 | 0.00 | 0.00 | 70 | 1016.7 |
| 20260507091636 | 5 | 194 | 4.8 | 4.8 | 0.00 | 0.00 | 0.00 | 74 | 1016.8 |
| 20260507091132 | 5 | 195 | 4.8 | 4.8 | 0.00 | 0.00 | 0.00 | 74 | 1016.9 |
| 20260507090628 | 5 | 180 | 3.2 | 4.8 | 0.00 | 0.00 | 0.00 | 76 | 1017.0 |
| 20260507090126 | 5 | 170 | 3.2 | 4.8 | 0.00 | 0.00 | 0.00 | 79 | 1017.0 |
| 20260507085622 | 5 | 133 | 4.8 | 4.8 | 0.00 | 0.00 | 0.00 | 78 | 1016.9 |
| 20260507085119 | 5 | 105 | 1.6 | 1.6 | 0.00 | 0.00 | 0.00 | 75 | 1016.9 |
| 20260507084615 | 5 | 178 | 1.6 | 3.2 | 0.00 | 0.00 | 0.00 | 76 | 1017.0 |
| 20260507084107 | 5 | 189 | 0.0 | 3.2 | 0.00 | 0.00 | 0.00 | 75 | 1017.0 |
| 20260507083603 | 6 | 197 | 1.6 | 3.2 | 0.00 | 0.00 | 0.00 | 73 | 1017.2 |
| 20260507083100 | 6 | 155 | 3.2 | 3.2 | 0.00 | 0.00 | 0.00 | 72 | 1017.2 |
| 20260507082556 | 6 | 177 | 3.2 | 3.2 | 0.00 | 0.00 | 0.00 | 73 | 1017.3 |
| 20260507082052 | 6 | 182 | 3.2 | 3.2 | 0.00 | 0.00 | 0.00 | 73 | 1017.3 |
| 20260507081549 | 6 | 177 | 3.2 | 3.2 | 0.00 | 0.00 | 0.00 | 73 | 1017.3 |
| 20260507081046 | 6 | 166 | 0.0 | 3.2 | 0.00 | 0.00 | 0.00 | 74 | 1017.3 |
| 20260507080542 | 6 | 177 | 1.6 | 3.2 | 0.00 | 0.00 | 0.00 | 74 | 1017.3 |
| 20260507080038 | 6 | 174 | 1.6 | 3.2 | 0.00 | 0.00 | 0.00 | 74 | 1017.4 |
| 20260507075534 | 6 | 179 | 1.6 | 3.2 | 0.00 | 0.00 | 0.00 | 73 | 1017.5 |
| 20260507075030 | 6 | 197 | 1.6 | 3.2 | 0.00 | 0.00 | 0.00 | 73 | 1017.4 |
| 20260507074527 | 6 | 183 | 1.6 | 3.2 | 0.00 | 0.00 | 0.00 | 72 | 1017.5 |
| 20260507074026 | 6 | 170 | 1.6 | 3.2 | 0.00 | 0.00 | 0.00 | 72 | 1017.3 |
| 20260507073521 | 6 | 155 | 1.6 | 3.2 | 0.00 | 0.00 | 0.00 | 71 | 1017.6 |
| 20260507073018 | 6 | 169 | 3.2 | 3.2 | 0.00 | 0.00 | 0.00 | 71 | 1017.5 |
| 20260507072516 | 6 | 195 | 1.6 | 3.2 | 0.00 | 0.00 | 0.00 | 72 | 1017.6 |
| 20260507072013 | 6 | 161 | 0.0 | 1.6 | 0.00 | 0.00 | 0.00 | 73 | 1017.6 |
| 20260507071510 | 6 | 159 | 0.0 | 1.6 | 0.00 | 0.00 | 0.00 | 72 | 1017.7 |
| 20260507071006 | 6 | 153 | 0.0 | 1.6 | 0.00 | 0.00 | 0.00 | 71 | 1017.6 |
| 20260507070504 | 6 | 133 | 0.0 | 3.2 | 0.00 | 0.00 | 0.00 | 70 | 1017.6 |
| 20260507070001 | 6 | 187 | 1.6 | 3.2 | 0.00 | 0.00 | 0.00 | 70 | 1017.8 |
| 20260507065457 | 6 | 188 | 1.6 | 4.8 | 0.00 | 0.00 | 0.00 | 70 | 1017.8 |
| 20260507064954 | 6 | 159 | 0.0 | 1.6 | 0.00 | 0.00 | 0.00 | 71 | 1017.8 |
| 20260507064452 | 6 | 159 | 0.0 | 1.6 | 0.00 | 0.00 | 0.00 | 71 | 1018.0 |
| 20260507063950 | 7 | 167 | 0.0 | 1.6 | 0.00 | 0.00 | 0.00 | 69 | 1017.9 |
| 20260507063447 | 7 | 169 | 1.6 | 1.6 | 0.00 | 0.00 | 0.00 | 67 | 1018.0 |
| 20260507062944 | 7 | 142 | 1.6 | 3.2 | 0.00 | 0.00 | 0.00 | 66 | 1017.9 |
| 20260507062441 | 7 | 180 | 3.2 | 3.2 | 0.00 | 0.00 | 0.00 | 64 | 1018.0 |
| 20260507061938 | 7 | 179 | 3.2 | 4.8 | 0.00 | 0.00 | 0.00 | 65 | 1018.1 |
| 20260507061436 | 7 | 177 | 1.6 | 3.2 | 0.00 | 0.00 | 0.00 | 65 | 1018.0 |
| 20260507060934 | 7 | 182 | 3.2 | 3.2 | 0.00 | 0.00 | 0.00 | 66 | 1018.2 |
| 20260507060431 | 7 | 161 | 1.6 | 3.2 | 0.00 | 0.00 | 0.00 | 66 | 1018.0 |
| 20260507055927 | 7 | 180 | 3.2 | 3.2 | 0.00 | 0.00 | 0.00 | 64 | 1018.1 |
| 20260507055422 | 7 | 171 | 1.6 | 1.6 | 0.00 | 0.00 | 0.00 | 68 | 1018.1 |
| 20260507054914 | 7 | 154 | 1.6 | 3.2 | 0.00 | 0.00 | 0.00 | 65 | 1018.3 |
| 20260507054410 | 7 | 181 | 1.6 | 3.2 | 0.00 | 0.00 | 0.00 | 67 | 1018.3 |
| 20260507053908 | 7 | 134 | 0.0 | 1.6 | 0.00 | 0.00 | 0.00 | 69 | 1018.2 |
| 20260507053405 | 8 | 155 | 0.0 | 3.2 | 0.00 | 0.00 | 0.00 | 67 | 1018.2 |
| 20260507052904 | 7 | 149 | 3.2 | 3.2 | 0.00 | 0.00 | 0.00 | 66 | 1018.3 |
| 20260507052400 | 7 | 181 | 1.6 | 3.2 | 0.00 | 0.00 | 0.00 | 68 | 1018.2 |
| 20260507051857 | 7 | 128 | 0.0 | 0.0 | 0.00 | 0.00 | 0.00 | 69 | 1018.3 |
| 20260507051355 | 8 | 141 | 0.0 | 1.6 | 0.00 | 0.00 | 0.00 | 68 | 1018.4 |
| 20260507050852 | 8 | 138 | 0.0 | 0.0 | 0.00 | 0.00 | 0.00 | 67 | 1018.3 |
| 20260507050348 | 8 | 139 | 0.0 | 1.6 | 0.00 | 0.00 | 0.00 | 66 | 1018.4 |
| 20260507045845 | 8 | 135 | 0.0 | 0.0 | 0.00 | 0.00 | 0.00 | 63 | 1018.6 |
| 20260507045341 | 8 | 138 | 0.0 | 1.6 | 0.00 | 0.00 | 0.00 | 60 | 1018.4 |
| 20260507044833 | 8 | 120 | 0.0 | 1.6 | 0.00 | 0.00 | 0.00 | 59 | 1018.3 |
| 20260507044329 | 8 | 163 | 1.6 | 1.6 | 0.00 | 0.00 | 0.00 | 59 | 1018.4 |
| 20260507043825 | 8 | 170 | 1.6 | 3.2 | 0.00 | 0.00 | 0.00 | 57 | 1018.4 |
| 20260507043322 | 8 | 178 | 3.2 | 3.2 | 0.00 | 0.00 | 0.00 | 61 | 1018.6 |
| 20260507042818 | 7 | 118 | 0.0 | 1.6 | 0.00 | 0.00 | 0.00 | 66 | 1018.6 |
| 20260507042314 | 7 | 160 | 1.6 | 1.6 | 0.00 | 0.00 | 0.00 | 64 | 1018.6 |
| 20260507041811 | 8 | 154 | 0.0 | 0.0 | 0.00 | 0.00 | 0.00 | 64 | 1018.6 |
| 20260507041308 | 8 | 154 | 0.0 | 0.0 | 0.00 | 0.00 | 0.00 | 65 | 1018.4 |
| 20260507040805 | 8 | 154 | 0.0 | 0.0 | 0.00 | 0.00 | 0.00 | 64 | 1018.4 |
| 20260507040301 | 8 | 154 | 0.0 | 0.0 | 0.00 | 0.00 | 0.00 | 58 | 1018.6 |
| 20260507035757 | 8 | 154 | 0.0 | 0.0 | 0.00 | 0.00 | 0.00 | 57 | 1018.3 |
| 20260507035252 | 8 | 155 | 0.0 | 0.0 | 0.00 | 0.00 | 0.00 | 58 | 1018.6 |
| 20260507034750 | 8 | 154 | 0.0 | 0.0 | 0.00 | 0.00 | 0.00 | 60 | 1018.7 |
| 20260507034247 | 8 | 154 | 0.0 | 0.0 | 0.00 | 0.00 | 0.00 | 59 | 1018.6 |
| 20260507033746 | 8 | 154 | 0.0 | 0.0 | 0.00 | 0.00 | 0.00 | 59 | 1018.4 |
| 20260507033243 | 8 | 154 | 0.0 | 0.0 | 0.00 | 0.00 | 0.00 | 61 | 1018.3 |
| 20260507032740 | 8 | 154 | 0.0 | 0.0 | 0.00 | 0.00 | 0.00 | 56 | 1018.6 |
| 20260507032236 | 8 | 154 | 0.0 | 0.0 | 0.00 | 0.00 | 0.00 | 58 | 1018.4 |
| 20260507031732 | 8 | 154 | 0.0 | 0.0 | 0.00 | 0.00 | 0.00 | 58 | 1018.6 |
| 20260507031229 | 8 | 154 | 0.0 | 0.0 | 0.00 | 0.00 | 0.00 | 55 | 1018.7 |
| 20260507030726 | 8 | 155 | 0.0 | 0.0 | 0.00 | 0.00 | 0.00 | 53 | 1018.4 |
| 20260507030224 | 8 | 155 | 0.0 | 0.0 | 0.00 | 0.00 | 0.00 | 55 | 1018.6 |
| 20260507025721 | 8 | 154 | 0.0 | 0.0 | 0.00 | 0.00 | 0.00 | 54 | 1018.6 |
| 20260507025218 | 8 | 154 | 1.6 | 1.6 | 0.00 | 0.00 | 0.00 | 55 | 1018.4 |
| 20260507024716 | 8 | 154 | 0.0 | 0.0 | 0.00 | 0.00 | 0.00 | 59 | 1018.4 |
| 20260507024213 | 8 | 154 | 0.0 | 1.6 | 0.00 | 0.00 | 0.00 | 52 | 1018.3 |
| 20260507023708 | 8 | 163 | 1.6 | 3.2 | 0.00 | 0.00 | 0.00 | 57 | 1018.4 |
| 20260507023205 | 8 | 116 | 0.0 | 0.0 | 0.00 | 0.00 | 0.00 | 59 | 1018.1 |
| 20260507022703 | 8 | 116 | 0.0 | 0.0 | 0.00 | 0.00 | 0.00 | 56 | 1018.1 |
| 20260507022158 | 8 | 116 | 0.0 | 0.0 | 0.00 | 0.00 | 0.00 | 60 | 1018.2 |
| 20260507021655 | 8 | 116 | 0.0 | 0.0 | 0.00 | 0.00 | 0.00 | 62 | 1018.2 |
| 20260507021150 | 8 | 116 | 0.0 | 0.0 | 0.00 | 0.00 | 0.00 | 63 | 1018.1 |
| 20260507020649 | 8 | 116 | 0.0 | 0.0 | 0.00 | 0.00 | 0.00 | 60 | 1018.1 |
| 20260507020144 | 8 | 116 | 0.0 | 0.0 | 0.00 | 0.00 | 0.00 | 59 | 1018.1 |
| 20260507015643 | 8 | 116 | 0.0 | 0.0 | 0.00 | 0.00 | 0.00 | 60 | 1018.1 |
| 20260507015140 | 9 | 116 | 0.0 | 0.0 | 0.00 | 0.00 | 0.00 | 61 | 1017.9 |
| 20260507014636 | 10 | 116 | 0.0 | 0.0 | 0.00 | 0.00 | 0.00 | 59 | 1018.0 |
| 20260507014132 | 10 | 116 | 0.0 | 0.0 | 0.00 | 0.00 | 0.00 | 56 | 1017.9 |
| 20260507013629 | 10 | 116 | 0.0 | 0.0 | 0.00 | 0.00 | 0.00 | 53 | 1017.9 |
| 20260507013127 | 10 | 116 | 0.0 | 0.0 | 0.00 | 0.00 | 0.00 | 52 | 1017.8 |
| 20260507012624 | 11 | 125 | 0.0 | 1.6 | 0.00 | 0.00 | 0.00 | 50 | 1017.7 |
| 20260507012119 | 11 | 140 | 0.0 | 0.0 | 0.00 | 0.00 | 0.00 | 44 | 1017.7 |
| 20260507011618 | 13 | 303 | 3.2 | 3.2 | 0.00 | 0.00 | 0.00 | 37 | 1017.8 |
| 20260507011113 | 13 | 303 | 3.2 | 3.2 | 0.00 | 0.00 | 0.00 | 37 | 1017.8 |
| 20260507010609 | 13 | 303 | 3.2 | 3.2 | 0.00 | 0.00 | 0.00 | 37 | 1017.8 |
| 20260507010104 | 13 | 303 | 3.2 | 3.2 | 0.00 | 0.00 | 0.00 | 37 | 1017.9 |
| 20260507005602 | 13 | 303 | 3.2 | 3.2 | 0.00 | 0.00 | 0.00 | 37 | 1017.8 |